Page, AZ

11:49 PM MDT on April 20, 2018 (GMT -0600)
Page Municipal

Weather History for KPGA - June, 2014

Change the Weather History Date:

Tuesday, June 10, 2014

  Actual Average Record
Temperature  
Mean Temperature 82 °F -  
Max Temperature 99 °F 88 °F 102 °F (1985)
Min Temperature 64 °F 60 °F 49 °F (1965)
Cooling Degree Days 16    
Growing Degree Days 32 (Base 50)    
Moisture  
Dew Point 24 °F    
Average Humidity 12    
Maximum Humidity 23    
Minimum Humidity 4    
Precipitation  
Precipitation 0.00 in - - ()
Sea Level Pressure  
Sea Level Pressure 29.71 in    
Wind  
Wind Speed 5 mph (West)    
Max Wind Speed 10 mph    
Max Gust Speed 18 mph    
Visibility 10 miles    
Events      
Averages and records for this station are not official NWS values.
T = Trace of Precipitation, MM = Missing Value Source: NWS Daily Summary

Daily Weather History Graph

Daily Weather History Graph

Search for Another Location

Airport or City:

Astronomy

Jun. 10, 2014 Rise Set
Actual Time 5:05 AM MST 7:44 PM MST
Civil Twilight 4:35 AM MST 8:15 PM MST
Nautical Twilight 3:57 AM MST 8:53 PM MST
Astronomical Twilight 3:14 AM MST 9:36 PM MST
Moon 5:17 PM MST (6/10) 3:10 AM MST (6/10)
Length of Visible Light 15h 40m
Length of Day
14h 38m
Waxing Gibbous, 93% of the Moon is Illuminated
Jun 10
Waxing Gibbous
Jun 12
Full
Jun 19
Last Quarter
Jun 27
New
Jul 5
First Quarter

Hourly Weather History & Observations

Time (MST) Temp. Dew Point Humidity Pressure Visibility Wind Dir Wind Speed Gust Speed Precip Events Conditions
12:53 AM 72.0 °F 24.1 °F 17% 29.75 in 10.0 mi South 4.6 mph - N/A   Clear
1:53 AM 72.0 °F 23.0 °F 16% 29.74 in 10.0 mi SSW 5.8 mph - N/A   Clear
2:53 AM 68.0 °F 25.0 °F 20% 29.74 in 10.0 mi Calm Calm - N/A   Clear
3:53 AM 68.0 °F 24.1 °F 19% 29.75 in 10.0 mi West 3.5 mph - N/A   Clear
4:53 AM 64.9 °F 26.1 °F 23% 29.76 in 10.0 mi Calm Calm - N/A   Clear
5:53 AM 66.9 °F 28.0 °F 23% 29.77 in 10.0 mi Calm Calm - N/A   Clear
6:53 AM 73.0 °F 25.0 °F 17% 29.77 in 10.0 mi Calm Calm - N/A   Clear
7:53 AM 75.2 °F 26.6 °F 17% 29.98 in 10.0 mi NNW 4.6 mph - N/A   Clear
8:53 AM 79.0 °F 26.1 °F 14% 29.78 in 10.0 mi North 6.9 mph - N/A   Clear
9:53 AM 82.0 °F 26.1 °F 13% 29.77 in 10.0 mi North 4.6 mph - N/A   Clear
10:53 AM 87.1 °F 25.0 °F 10% 29.75 in 10.0 mi Variable 3.5 mph - N/A   Clear
11:53 AM 91.4 °F 23.0 °F 8% 29.94 in 10.0 mi NNE 8.1 mph - N/A   Clear
12:53 PM 93.0 °F 21.0 °F 7% 29.70 in 10.0 mi NNW 5.8 mph - N/A   Clear
1:53 PM 96.8 °F 19.4 °F 6% 29.89 in 10.0 mi NE 8.1 mph - N/A   Clear
2:53 PM 99.0 °F 19.0 °F 6% 29.63 in 10.0 mi Variable 6.9 mph - N/A   Clear
3:53 PM 98.1 °F 18.0 °F 6% 29.60 in 10.0 mi WSW 6.9 mph 17.3 mph N/A   Clear
4:53 PM 98.1 °F 19.0 °F 6% 29.58 in 10.0 mi SW 10.4 mph 18.4 mph N/A   Clear
5:53 PM 96.1 °F 18.0 °F 6% 29.57 in 10.0 mi South 5.8 mph - N/A   Clear
6:53 PM 95.0 °F 19.9 °F 7% 29.55 in 10.0 mi South 6.9 mph - N/A   Clear
7:53 PM 93.2 °F 21.2 °F 7% 29.78 in 10.0 mi West 8.1 mph - N/A   Clear
8:53 PM 91.0 °F 28.0 °F 10% 29.58 in 10.0 mi West 6.9 mph - N/A   Clear
9:53 PM 90.0 °F 28.9 °F 11% 29.60 in 10.0 mi SW 6.9 mph - N/A   Clear
10:53 PM 88.0 °F 32.0 °F 14% 29.61 in 10.0 mi WSW 6.9 mph - N/A   Clear
11:53 PM 87.1 °F 33.1 °F 15% 29.61 in 10.0 mi WSW 6.9 mph - N/A   Clear